Hourly Data Report for June 24, 2020

OTTAWA INTL A
ONTARIO
Current Station Operator: NAVCAN

45°19'00.000" N
75°40'00.000" W
114.90 m
6106001
71628
YOW

Download Data

Hourly Data (June 2020)
Hourly Data Report for June 24, 2020
TIME Temp Definition
°C
Dew Point Definition
°C
Rel Hum Definition
%
Wind Dir Definition
10's deg

Wind Spd Definition
km/h
Visibility Definition
km
Stn Press Definition
kPa
Hmdx Definition


Wind Chill Definition


Weather Definition


00:00 20.1 19.1 94 19 12 24.1 98.60 27   Rain Showers
01:00 20.0 19.3 96 19 12 12.9 98.58 27   Rain Showers
02:00 20.1 19.4 96 19 17 24.1 98.56 27   LegendNANA
03:00 19.8 18.8 94 19 14 16.1 98.55     LegendNANA
04:00 18.9 17.6 92 19 20 24.1 98.58     Mostly Cloudy
05:00 18.0 14.6 80 20 22 24.1 98.68     LegendNANA
06:00 18.3 14.1 76 21 18 24.1 98.73     LegendNANA
07:00 19.0 14.0 73 20 17 24.1 98.73     Mostly Cloudy
08:00 18.9 12.7 67 22 26 24.1 98.76     LegendNANA
09:00 19.1 12.2 64 22 26 24.1 98.79     LegendNANA
10:00 19.7 12.5 63 22 33 24.1 98.81     Mostly Cloudy
11:00 20.6 12.6 60 21 27 24.1 98.83     LegendNANA
12:00 19.8 12.2 61 20 32 24.1 98.85     LegendNANA
13:00 20.0 12.2 61 22 31 24.1 98.89     Mostly Cloudy
14:00 21.1 11.1 52 23 31 24.1 98.97     LegendNANA
15:00 20.3 10.6 53 23 29 24.1 99.06     LegendNANA
16:00 19.5 10.3 55 24 31 24.1 99.11     Mostly Cloudy
17:00 19.9 9.9 52 24 28 24.1 99.12     LegendNANA
18:00 20.7 9.9 50 24 19 24.1 99.12     LegendNANA
19:00 19.3 9.7 53 22 21 24.1 99.19     Mostly Cloudy
20:00 18.4 9.7 57 22 18 24.1 99.23     LegendNANA
21:00 17.4 9.9 61 23 14 24.1 99.29     LegendNANA
22:00 16.4 9.8 64 22 13 24.1 99.29     Mainly Clear
23:00 16.1 10.1 68 20 15 24.1 99.30     LegendNANA

Notes on Data Quality.

Legend

  • E = Estimated
  • M = Missing
  • NA = Not Available*
  • [empty] = Indicates an unobserved value
Date modified: